Moses Lake, WA

11:15 PM PDT on September 25, 2017 (GMT -0700)
Grant County International

Weather History for KMWH - June, 2012

Change the Weather History Date:

Wednesday, June 13, 2012

  Actual Average Record
Temperature  
Mean Temperature 67 °F 65 °F  
Max Temperature 79 °F 79 °F 93 °F (1986)
Min Temperature 54 °F 52 °F 43 °F (2001)
Degree Days  
Heating Degree Days 0 2  
Month to date heating degree days 61 33  
Since 1 June heating degree days 61 33  
Since 1 July heating degree days 5812 5860  
Cooling Degree Days 2 2  
Month to date cooling degree days 15 26  
Year to date cooling degree days 42 51  
Since 1 June cooling degree days 15 26  
Growing Degree Days 18 (Base 50)    
Moisture  
Dew Point 38 °F    
Average Humidity 39    
Maximum Humidity 62    
Minimum Humidity 16    
Precipitation  
Precipitation 0.00 in 0.03 in 0.44 in (1984)
Month to date precipitation 0.93 0.41  
Year to date precipitation 3.82 4.43  
Sea Level Pressure  
Sea Level Pressure 29.91 in    
Wind  
Wind Speed 13 mph (WSW)    
Max Wind Speed 28 mph    
Max Gust Speed 31 mph    
Visibility 10 miles    
Events      
T = Trace of Precipitation, MM = Missing Value Source: NWS Daily Summary

Daily Weather History Graph

Daily Weather History Graph

Search for Another Location

Airport or City:

Trip Planner

Search our weather history database for the weather conditions in past years. The results will help you decide how hot, cold, wet, or windy it might be!

Date:

Astronomy

Jun. 13, 2012 Rise Set
Actual Time 5:00 AM PDT 8:54 PM PDT
Civil Twilight 4:20 AM PDT 9:34 PM PDT
Nautical Twilight 3:26 AM PDT 10:29 PM PDT
Astronomical Twilight 2:03 AM PDT 11:52 PM PDT
Moon 1:34 AM PDT (6/13) 3:30 PM PDT (6/13)
Length of Visible Light 17h 13m
Length of Day
15h 53m
Waning Crescent, 28% of the Moon is Illuminated
Jun 13
Waning Crescent
Jun 19
New
Jun 26
First Quarter
Jul 3
Full
Jul 10
Last Quarter

Hourly Weather History & Observations

Time (PDT) Temp. Dew Point Humidity Pressure Visibility Wind Dir Wind Speed Gust Speed Precip Events Conditions
12:52 AM 60.1 °F 46.0 °F 60% 29.87 in 10.0 mi SW 4.6 mph - N/A   Clear
1:52 AM 60.8 °F 44.6 °F 55% 29.88 in 10.0 mi SW 8.1 mph - N/A   Clear
2:52 AM 57.2 °F 44.6 °F 63% 29.89 in 10.0 mi WSW 8.1 mph - N/A   Clear
3:52 AM 57.0 °F 44.1 °F 62% 29.88 in 10.0 mi WSW 8.1 mph - N/A   Clear
4:52 AM 57.2 °F 44.6 °F 63% 29.90 in 10.0 mi WSW 11.5 mph - N/A   Clear
5:52 AM 57.0 °F 43.0 °F 59% 29.89 in 10.0 mi WSW 11.5 mph - N/A   Clear
6:52 AM 61.0 °F 45.0 °F 56% 29.90 in 10.0 mi WSW 10.4 mph - N/A   Clear
7:52 AM 66.0 °F 42.1 °F 42% 29.91 in 10.0 mi West 15.0 mph - N/A   Clear
8:52 AM 68.0 °F 41.0 °F 37% 29.91 in 10.0 mi WSW 11.5 mph - N/A   Clear
9:39 AM 69.8 °F 39.2 °F 33% 29.92 in 10.0 mi WSW 13.8 mph - N/A   Clear
9:52 AM 71.1 °F 37.9 °F 30% 29.91 in 10.0 mi West 12.7 mph 20.7 mph N/A   Clear
10:52 AM 71.6 °F 37.4 °F 29% 29.92 in 10.0 mi WSW 18.4 mph - N/A   Clear
11:52 AM 72.0 °F 39.9 °F 31% 29.92 in 10.0 mi SW 9.2 mph 20.7 mph N/A   Clear
12:52 PM 73.9 °F 37.9 °F 27% 29.92 in 10.0 mi WSW 10.4 mph 18.4 mph N/A   Clear
1:52 PM 73.9 °F 37.0 °F 26% 29.92 in 10.0 mi SSW 4.6 mph - N/A   Scattered Clouds
2:52 PM 78.1 °F 35.1 °F 21% 29.91 in 10.0 mi West 19.6 mph 25.3 mph N/A   Clear
3:52 PM 78.1 °F 28.0 °F 16% 29.91 in 10.0 mi West 19.6 mph 27.6 mph N/A   Clear
4:52 PM 77.0 °F 28.9 °F 17% 29.91 in 10.0 mi West 16.1 mph 24.2 mph N/A   Clear
5:52 PM 75.9 °F 34.0 °F 22% 29.89 in 10.0 mi WSW 21.9 mph 26.5 mph N/A   Clear
6:52 PM 75.0 °F 32.0 °F 21% 29.90 in 10.0 mi West 18.4 mph 27.6 mph N/A   Clear
7:52 PM 69.1 °F 35.1 °F 29% 29.91 in 10.0 mi West 19.6 mph - N/A   Clear
8:52 PM 64.9 °F 34.0 °F 32% 29.92 in 10.0 mi WNW 18.4 mph - N/A   Clear
9:52 PM 59.0 °F 34.0 °F 39% 29.94 in 10.0 mi WNW 3.5 mph - N/A   Clear
10:52 PM 57.9 °F 35.1 °F 42% 29.96 in 10.0 mi West 9.2 mph - N/A   Clear
11:52 PM 57.0 °F 37.0 °F 47% 29.97 in 10.0 mi SSW 5.8 mph - N/A   Clear